VJC559 VVTS-VTSM

Flight info

Callsign VJC559
Flight time 1h 4m
Altitude 37000
Route ATGAS7B ATGAS W17 TUNPO DCT BANSA/N0441F380 DCT KUMTO DCT UPNEP
Aircraft A320/M-SDE3FGHIRWY/LB1

Departure

Time 2026-05-03 22:45
Airport Tan Son Nhat International Airport (VVTS)

Arrival

Time 2026-05-03 23:50
Airport Samui International Airport (VTSM)
Time Latitude Longitude Altitude Speed Heading
2026-05-03 22:24 10.81472 106.65943 37 ft 0 kts 275°
2026-05-03 22:30 10.81471 106.65957 37 ft 4 kts 275°
2026-05-03 22:30 10.81469 106.65985 37 ft 4 kts 275°
2026-05-03 22:31 10.81466 106.66007 37 ft 4 kts 291°
2026-05-03 22:31 10.81451 106.66027 35 ft 4 kts 339°
2026-05-03 22:31 10.81425 106.66031 36 ft 4 kts
2026-05-03 22:31 10.81416 106.66031 34 ft 0 kts
2026-05-03 22:37 10.81436 106.66032 37 ft 4 kts
2026-05-03 22:38 10.81465 106.66035 37 ft 4 kts
2026-05-03 22:38 10.81490 106.66037 37 ft 4 kts
2026-05-03 22:38 10.81514 106.66040 37 ft 3 kts
2026-05-03 22:38 10.81540 106.66042 36 ft 5 kts
2026-05-03 22:39 10.81594 106.66047 37 ft 10 kts
2026-05-03 22:39 10.81676 106.66055 37 ft 12 kts
2026-05-03 22:39 10.81753 106.66063 37 ft 11 kts
2026-05-03 22:39 10.81824 106.66070 37 ft 10 kts
2026-05-03 22:40 10.81875 106.66110 36 ft 10 kts 66°
2026-05-03 22:40 10.81899 106.66173 36 ft 10 kts 69°
2026-05-03 22:40 10.81922 106.66234 37 ft 9 kts 69°
2026-05-03 22:40 10.81943 106.66290 37 ft 8 kts 69°
2026-05-03 22:41 10.81965 106.66348 35 ft 9 kts 69°
2026-05-03 22:41 10.81991 106.66418 36 ft 12 kts 69°
2026-05-03 22:41 10.82028 106.66517 33 ft 17 kts 69°
2026-05-03 22:41 10.82073 106.66632 34 ft 18 kts 69°
2026-05-03 22:42 10.82111 106.66733 33 ft 14 kts 69°
2026-05-03 22:42 10.82148 106.66836 32 ft 17 kts 69°
2026-05-03 22:42 10.82187 106.66938 33 ft 12 kts 68°
2026-05-03 22:42 10.82216 106.66999 36 ft 7 kts 52°
2026-05-03 22:43 10.82257 106.67009 34 ft 6 kts 345°
2026-05-03 22:43 10.82288 106.66997 35 ft 0 kts 339°
2026-05-03 22:44 10.82293 106.66995 35 ft 4 kts 339°
2026-05-03 22:44 10.82328 106.66966 35 ft 7 kts 306°
2026-05-03 22:44 10.82346 106.66922 35 ft 7 kts 281°
2026-05-03 22:45 10.82331 106.66848 33 ft 29 kts 249°
2026-05-03 22:45 10.82149 106.66371 31 ft 111 kts 249°
2026-05-03 22:45 10.81795 106.65434 40 ft 170 kts 249°
2026-05-03 22:45 10.81332 106.64296 686 ft 172 kts 246°
2026-05-03 22:46 10.80920 106.63154 1476 ft 172 kts 249°
2026-05-03 22:46 10.80519 106.61967 2112 ft 183 kts 248°
2026-05-03 22:46 10.80076 106.60666 2491 ft 206 kts 248°
2026-05-03 22:46 10.79573 106.59203 2857 ft 232 kts 249°
2026-05-03 22:47 10.79010 106.57576 3344 ft 256 kts 249°
2026-05-03 22:47 10.78388 106.55796 3908 ft 276 kts 249°
2026-05-03 22:47 10.77734 106.53935 4813 ft 282 kts 250°
2026-05-03 22:47 10.77067 106.52045 5772 ft 286 kts 250°
2026-05-03 22:48 10.76391 106.50130 6683 ft 291 kts 250°
2026-05-03 22:48 10.75702 106.48179 7574 ft 296 kts 250°
2026-05-03 22:48 10.74995 106.46197 8461 ft 300 kts 249°
2026-05-03 22:48 10.74267 106.44189 9341 ft 305 kts 249°
2026-05-03 22:49 10.73523 106.42148 10133 ft 312 kts 249°
2026-05-03 22:49 10.72740 106.40001 10450 ft 335 kts 249°
2026-05-03 22:49 10.71915 106.37738 11027 ft 346 kts 249°
2026-05-03 22:49 10.71073 106.35428 11766 ft 350 kts 249°
2026-05-03 22:50 10.70223 106.33095 12531 ft 354 kts 249°
2026-05-03 22:50 10.69363 106.30732 13289 ft 358 kts 249°
2026-05-03 22:50 10.68496 106.28346 14009 ft 362 kts 249°
2026-05-03 22:50 10.67618 106.25930 14668 ft 366 kts 249°
2026-05-03 22:51 10.66733 106.23496 15334 ft 369 kts 249°
2026-05-03 22:51 10.65838 106.21041 15994 ft 372 kts 249°
2026-05-03 22:51 10.64934 106.18564 16654 ft 375 kts 249°
2026-05-03 22:51 10.64022 106.16060 17296 ft 379 kts 249°
2026-05-03 22:52 10.63100 106.13537 17933 ft 382 kts 249°
2026-05-03 22:52 10.62172 106.10996 18507 ft 386 kts 249°
2026-05-03 22:52 10.61234 106.08425 19060 ft 389 kts 249°
2026-05-03 22:52 10.60290 106.05842 19616 ft 392 kts 249°
2026-05-03 22:53 10.59338 106.03237 20178 ft 394 kts 249°
2026-05-03 22:53 10.58379 106.00614 20743 ft 397 kts 249°
2026-05-03 22:53 10.57418 105.97975 21291 ft 400 kts 249°
2026-05-03 22:53 10.56449 105.95314 21840 ft 403 kts 249°
2026-05-03 22:54 10.55474 105.92632 22386 ft 406 kts 249°
2026-05-03 22:54 10.54487 105.89927 22925 ft 409 kts 249°
2026-05-03 22:54 10.53491 105.87203 23476 ft 412 kts 249°
2026-05-03 22:54 10.52489 105.84467 23922 ft 415 kts 249°
2026-05-03 22:55 10.51477 105.81708 24368 ft 418 kts 249°
2026-05-03 22:55 10.50444 105.78899 24809 ft 420 kts 249°
2026-05-03 22:55 10.49418 105.76108 25238 ft 423 kts 249°
2026-05-03 22:55 10.48390 105.73307 25663 ft 425 kts 249°
2026-05-03 22:56 10.47355 105.70480 26083 ft 428 kts 249°
2026-05-03 22:56 10.46315 105.67641 26484 ft 430 kts 249°
2026-05-03 22:56 10.45267 105.64779 26890 ft 432 kts 250°
2026-05-03 22:56 10.44217 105.61912 27285 ft 435 kts 250°
2026-05-03 22:57 10.43160 105.59029 27655 ft 437 kts 250°
2026-05-03 22:57 10.42094 105.56128 28039 ft 439 kts 250°
2026-05-03 22:57 10.41020 105.53214 28406 ft 442 kts 249°
2026-05-03 22:57 10.39938 105.50285 28770 ft 444 kts 250°
2026-05-03 22:58 10.38852 105.47339 29131 ft 446 kts 250°
2026-05-03 22:58 10.37765 105.44378 29489 ft 448 kts 250°
2026-05-03 22:58 10.36676 105.41405 29839 ft 451 kts 250°
2026-05-03 22:58 10.35581 105.38414 30145 ft 453 kts 250°
2026-05-03 22:59 10.34478 105.35414 30432 ft 455 kts 250°
2026-05-03 22:59 10.33366 105.32395 30714 ft 457 kts 250°
2026-05-03 22:59 10.32248 105.29359 30983 ft 459 kts 250°
2026-05-03 22:59 10.31128 105.26314 31246 ft 461 kts 250°
2026-05-03 23:00 10.30003 105.23257 31513 ft 464 kts 250°
2026-05-03 23:00 10.28874 105.20192 31866 ft 463 kts 250°
2026-05-03 23:00 10.27747 105.17131 32248 ft 462 kts 249°
2026-05-03 23:00 10.26621 105.14079 32630 ft 462 kts 249°
2026-05-03 23:01 10.25497 105.11028 33019 ft 461 kts 249°
2026-05-03 23:01 10.24370 105.07977 33417 ft 461 kts 249°
2026-05-03 23:01 10.23247 105.04940 33811 ft 460 kts 249°
2026-05-03 23:01 10.22121 105.01904 34159 ft 459 kts 249°
2026-05-03 23:02 10.20997 104.98869 34507 ft 458 kts 249°
2026-05-03 23:02 10.19877 104.95845 34854 ft 457 kts 249°
2026-05-03 23:02 10.18764 104.92834 35203 ft 455 kts 249°
2026-05-03 23:02 10.17656 104.89828 35555 ft 453 kts 250°
2026-05-03 23:03 10.16542 104.86802 35900 ft 452 kts 250°
2026-05-03 23:03 10.15443 104.83821 36242 ft 450 kts 250°
2026-05-03 23:03 10.14347 104.80852 36575 ft 448 kts 250°
2026-05-03 23:03 10.13251 104.77886 36828 ft 448 kts 250°
2026-05-03 23:04 10.12527 104.75932 36879 ft 445 kts 250°
2026-05-03 23:04 10.10360 104.70096 36887 ft 441 kts 250°
2026-05-03 23:05 10.08196 104.64278 36883 ft 440 kts 250°
2026-05-03 23:05 10.06331 104.58375 36885 ft 440 kts 261°
2026-05-03 23:06 10.05870 104.52193 36883 ft 440 kts 268°
2026-05-03 23:06 10.05547 104.45997 36885 ft 440 kts 267°
2026-05-03 23:07 10.05210 104.39791 36886 ft 440 kts 267°
2026-05-03 23:07 10.04871 104.33587 36887 ft 441 kts 267°
2026-05-03 23:08 10.04535 104.27340 36889 ft 441 kts 267°
2026-05-03 23:08 10.04200 104.21121 36897 ft 441 kts 267°
2026-05-03 23:09 10.03865 104.14901 36906 ft 442 kts 267°
2026-05-03 23:09 10.03527 104.08669 36914 ft 442 kts 267°
2026-05-03 23:10 10.03186 104.02446 36919 ft 442 kts 267°
2026-05-03 23:10 10.02844 103.96211 36919 ft 442 kts 267°
2026-05-03 23:11 10.02502 103.89988 36918 ft 442 kts 267°
2026-05-03 23:11 10.02166 103.83771 36914 ft 441 kts 267°
2026-05-03 23:12 10.01824 103.77550 36907 ft 441 kts 267°
2026-05-03 23:12 10.01480 103.71342 36900 ft 441 kts 267°
2026-05-03 23:13 10.01136 103.65131 36894 ft 441 kts 267°
2026-05-03 23:13 10.00780 103.58917 36891 ft 441 kts 267°
2026-05-03 23:14 10.00430 103.52711 36889 ft 441 kts 267°
2026-05-03 23:14 10.00080 103.46491 36886 ft 441 kts 267°
2026-05-03 23:15 9.99839 103.40275 36889 ft 441 kts 270°
2026-05-03 23:15 9.99813 103.34046 36887 ft 441 kts 270°
2026-05-03 23:16 9.99806 103.27820 36887 ft 442 kts 270°
2026-05-03 23:16 9.99739 103.21550 36889 ft 442 kts 269°
2026-05-03 23:17 9.99639 103.15316 36885 ft 442 kts 269°
2026-05-03 23:17 9.99543 103.09076 36886 ft 443 kts 269°
2026-05-03 23:18 9.99464 103.02830 36885 ft 443 kts 269°
2026-05-03 23:18 9.99383 102.96575 36883 ft 443 kts 269°
2026-05-03 23:19 9.99304 102.90322 36885 ft 444 kts 269°
2026-05-03 23:19 9.99210 102.84058 36888 ft 444 kts 269°
2026-05-03 23:20 9.99119 102.77785 36888 ft 444 kts 269°
2026-05-03 23:20 9.99043 102.71516 36889 ft 445 kts 269°
2026-05-03 23:21 9.98963 102.65242 36890 ft 445 kts 269°
2026-05-03 23:21 9.98872 102.58973 36892 ft 445 kts 269°
2026-05-03 23:22 9.98732 102.49562 36895 ft 445 kts 269°
2026-05-03 23:22 9.98640 102.43290 36895 ft 445 kts 269°
2026-05-03 23:23 9.98548 102.37022 36895 ft 445 kts 269°
2026-05-03 23:23 9.98448 102.30751 36897 ft 444 kts 269°
2026-05-03 23:24 9.98352 102.24484 36899 ft 444 kts 269°
2026-05-03 23:24 9.98250 102.18192 36900 ft 443 kts 269°
2026-05-03 23:25 9.98153 102.11937 36900 ft 443 kts 269°
2026-05-03 23:25 9.98054 102.05707 36900 ft 442 kts 269°
2026-05-03 23:26 9.97950 101.99468 36900 ft 442 kts 269°
2026-05-03 23:26 9.97851 101.93218 36686 ft 450 kts 269°
2026-05-03 23:27 9.97801 101.90024 36127 ft 451 kts 269°
2026-05-03 23:27 9.97752 101.86854 35607 ft 447 kts 269°
2026-05-03 23:27 9.97705 101.83716 35066 ft 445 kts 269°
2026-05-03 23:27 9.97655 101.80580 34515 ft 443 kts 269°
2026-05-03 23:28 9.97603 101.77462 33968 ft 442 kts 269°
2026-05-03 23:28 9.97550 101.74354 33373 ft 440 kts 269°
2026-05-03 23:28 9.97498 101.71266 32838 ft 437 kts 269°
2026-05-03 23:28 9.97443 101.68191 32299 ft 434 kts 269°
2026-05-03 23:29 9.97387 101.65134 31761 ft 432 kts 269°
2026-05-03 23:29 9.97328 101.62099 31242 ft 429 kts 269°
2026-05-03 23:29 9.97271 101.59077 30727 ft 427 kts 269°
2026-05-03 23:29 9.97216 101.56080 30229 ft 425 kts 269°
2026-05-03 23:30 9.97164 101.53092 29684 ft 422 kts 269°
2026-05-03 23:30 9.97116 101.50126 29196 ft 418 kts 269°
2026-05-03 23:30 9.97068 101.47194 28725 ft 414 kts 269°
2026-05-03 23:30 9.97017 101.44292 28273 ft 409 kts 269°
2026-05-03 23:31 9.96964 101.41424 27824 ft 406 kts 269°
2026-05-03 23:31 9.96912 101.38568 27355 ft 403 kts 269°
2026-05-03 23:31 9.96858 101.35700 26885 ft 400 kts 269°
2026-05-03 23:31 9.96807 101.32924 26409 ft 398 kts 269°
2026-05-03 23:32 9.96759 101.30120 25931 ft 396 kts 269°
2026-05-03 23:32 9.96707 101.27292 25421 ft 395 kts 268°
2026-05-03 23:32 9.96656 101.24512 24923 ft 394 kts 269°
2026-05-03 23:32 9.96601 101.21729 24408 ft 394 kts 267°
2026-05-03 23:33 9.96232 101.18984 23896 ft 393 kts 255°
2026-05-03 23:33 9.95368 101.16362 23366 ft 392 kts 249°
2026-05-03 23:33 9.94408 101.13783 22803 ft 391 kts 249°
2026-05-03 23:33 9.93448 101.11209 22308 ft 388 kts 249°
2026-05-03 23:34 9.92496 101.08662 21813 ft 385 kts 249°
2026-05-03 23:34 9.91546 101.06128 21335 ft 383 kts 249°
2026-05-03 23:34 9.90605 101.03607 20849 ft 381 kts 249°
2026-05-03 23:34 9.89675 101.01107 20383 ft 379 kts 249°
2026-05-03 23:35 9.88749 100.98609 19911 ft 377 kts 249°
2026-05-03 23:35 9.87828 100.96128 19445 ft 375 kts 249°
2026-05-03 23:35 9.86909 100.93656 18979 ft 374 kts 249°
2026-05-03 23:35 9.85996 100.91208 18514 ft 366 kts 249°
2026-05-03 23:36 9.85112 100.88842 18065 ft 352 kts 249°
2026-05-03 23:36 9.84262 100.86562 17616 ft 339 kts 249°
2026-05-03 23:36 9.83439 100.84351 17215 ft 335 kts 249°
2026-05-03 23:36 9.82617 100.82142 16807 ft 334 kts 249°
2026-05-03 23:37 9.81797 100.79941 16420 ft 334 kts 249°
2026-05-03 23:37 9.81253 100.78482 16155 ft 333 kts 249°
2026-05-03 23:37 9.80431 100.76288 15757 ft 333 kts 249°
2026-05-03 23:37 9.79599 100.74068 15363 ft 333 kts 249°
2026-05-03 23:38 9.78781 100.71876 14979 ft 332 kts 249°
2026-05-03 23:38 9.77964 100.69687 14593 ft 332 kts 249°
2026-05-03 23:38 9.77149 100.67499 14206 ft 332 kts 249°
2026-05-03 23:38 9.76332 100.65310 13811 ft 332 kts 249°
2026-05-03 23:39 9.75514 100.63126 13385 ft 331 kts 249°
2026-05-03 23:39 9.74697 100.60948 12989 ft 330 kts 249°
2026-05-03 23:39 9.73886 100.58784 12585 ft 326 kts 249°
2026-05-03 23:39 9.73100 100.56683 12196 ft 312 kts 249°
2026-05-03 23:40 9.72346 100.54667 11833 ft 304 kts 249°
2026-05-03 23:40 9.71597 100.52661 11445 ft 304 kts 249°
2026-05-03 23:40 9.70903 100.50641 11062 ft 305 kts 256°
2026-05-03 23:40 9.70636 100.48518 10721 ft 303 kts 270°
2026-05-03 23:41 9.70845 100.46402 10388 ft 301 kts 280°
2026-05-03 23:41 9.71190 100.44314 10009 ft 301 kts 279°
2026-05-03 23:41 9.71530 100.42214 9573 ft 303 kts 279°
2026-05-03 23:41 9.71867 100.40105 9138 ft 302 kts 279°
2026-05-03 23:42 9.72201 100.38002 8720 ft 302 kts 279°
2026-05-03 23:42 9.72535 100.35907 8290 ft 301 kts 279°
2026-05-03 23:42 9.72873 100.33811 7855 ft 301 kts 279°
2026-05-03 23:42 9.73211 100.31720 7401 ft 301 kts 279°
2026-05-03 23:43 9.73492 100.29646 7019 ft 298 kts 273°
2026-05-03 23:43 9.73519 100.27535 6561 ft 298 kts 270°
2026-05-03 23:43 9.73519 100.25462 6053 ft 292 kts 270°
2026-05-03 23:43 9.73515 100.23409 5350 ft 289 kts 270°
2026-05-03 23:44 9.73513 100.21395 4787 ft 284 kts 270°
2026-05-03 23:44 9.73510 100.19406 4256 ft 281 kts 270°
2026-05-03 23:44 9.73506 100.17455 3912 ft 267 kts 270°
2026-05-03 23:44 9.73504 100.15667 3856 ft 242 kts 270°
2026-05-03 23:45 9.73503 100.13986 3780 ft 229 kts 270°
2026-05-03 23:45 9.73444 100.12402 3690 ft 222 kts 258°
2026-05-03 23:45 9.72900 100.10993 3593 ft 211 kts 234°
2026-05-03 23:45 9.71904 100.09941 3354 ft 207 kts 212°
2026-05-03 23:46 9.70622 100.09287 3080 ft 207 kts 202°
2026-05-03 23:46 9.69300 100.08685 2799 ft 208 kts 202°
2026-05-03 23:46 9.67977 100.08080 2521 ft 209 kts 203°
2026-05-03 23:46 9.66668 100.07482 2288 ft 201 kts 203°
2026-05-03 23:47 9.65429 100.06915 2008 ft 189 kts 203°
2026-05-03 23:47 9.64293 100.06395 1779 ft 171 kts 203°
2026-05-03 23:47 9.63259 100.05919 1597 ft 154 kts 204°
2026-05-03 23:47 9.62295 100.05591 1395 ft 142 kts 187°
2026-05-03 23:48 9.61331 100.05615 1220 ft 137 kts 172°
2026-05-03 23:48 9.60394 100.05740 1044 ft 135 kts 173°
2026-05-03 23:48 9.59461 100.05814 893 ft 135 kts 175°
2026-05-03 23:48 9.58529 100.05892 762 ft 134 kts 174°
2026-05-03 23:49 9.57597 100.05980 579 ft 135 kts 174°
2026-05-03 23:49 9.56664 100.06065 355 ft 134 kts 174°
2026-05-03 23:49 9.55734 100.06153 134 ft 134 kts 174°
2026-05-03 23:49 9.54841 100.06241 50 ft 110 kts 174°
2026-05-03 23:50 9.54380 100.06286 53 ft 32 kts 174°
2026-05-03 23:50 9.54232 100.06301 53 ft 32 kts 174°
2026-05-03 23:50 9.54106 100.06302 53 ft 5 kts 184°
2026-05-03 23:50 9.54099 100.06321 53 ft 5 kts 68°
2026-05-03 23:51 9.54132 100.06319 52 ft 5 kts 347°
2026-05-03 23:51 9.54164 100.06312 51 ft 5 kts 347°
2026-05-03 23:51 9.54205 100.06304 53 ft 9 kts 352°
2026-05-03 23:51 9.54279 100.06296 50 ft 11 kts 354°
2026-05-03 23:52 9.54352 100.06288 50 ft 10 kts 354°
2026-05-03 23:52 9.54420 100.06281 53 ft 9 kts 354°
2026-05-03 23:52 9.54481 100.06274 53 ft 9 kts 355°
2026-05-03 23:52 9.54538 100.06270 53 ft 8 kts 355°
2026-05-03 23:53 9.54589 100.06265 49 ft 7 kts 355°
2026-05-03 23:53 9.54638 100.06261 50 ft 7 kts 355°
2026-05-03 23:53 9.54717 100.06254 53 ft 17 kts 354°
2026-05-03 23:53 9.54835 100.06242 53 ft 14 kts 354°
2026-05-03 23:54 9.54929 100.06233 50 ft 12 kts 354°
2026-05-03 23:54 9.54996 100.06235 53 ft 8 kts 37°
2026-05-03 23:54 9.55014 100.06289 53 ft 8 kts 75°
2026-05-03 23:54 9.55058 100.06306 53 ft 7 kts 355°
2026-05-03 23:55 9.55108 100.06301 49 ft 7 kts 354°
2026-05-03 23:55 9.55152 100.06300 53 ft 5 kts 25°
2026-05-03 23:55 9.55160 100.06321 53 ft 2 kts 81°
2026-05-03 23:55 9.55160 100.06325 53 ft 1 kts 83°
2026-05-03 23:56 9.55162 100.06338 53 ft 0 kts 83°